DW1520 Weather Reports


time (UTC)temp
C
wind
direction
speed
KPH
gust
KPH
rain 1hr
cm
rain 24hr
cm
rain mn
cm
humidity
%
barometer
mb
20260904182006 34 175 3.2 9.7 0.00 0.00 0.00 61 1007.7
20260904181506 34 137 3.2 9.7 0.00 0.00 0.00 61 1007.7
20260904181005 34 163 1.6 8.0 0.00 0.00 0.00 61 1007.7
20260904180506 34 163 3.2 9.7 0.00 0.00 0.00 61 1007.7
20260904180005 34 161 3.2 9.7 0.00 0.00 0.00 62 1007.7
20260904175505 33 161 1.6 4.8 0.00 0.00 0.00 62 1007.7
20260904175006 33 161 3.2 8.0 0.00 0.00 0.00 60 1007.8
20260904174505 34 161 4.8 9.7 0.00 0.00 0.00 61 1007.8
20260904173005 33 167 0.0 4.8 0.00 0.00 0.00 62 1007.7
20260904172505 33 167 1.6 4.8 0.00 0.00 0.00 61 1007.8
20260904172006 33 167 4.8 9.7 0.00 0.00 0.00 63 1007.8
20260904171506 33 163 1.6 9.7 0.00 0.00 0.00 64 1007.8
20260904171006 33 161 0.0 1.6 0.00 0.00 0.00 64 1007.8
20260904170505 33 161 1.6 3.2 0.00 0.00 0.00 65 1007.8
20260904170005 33 161 0.0 4.8 0.00 0.00 0.00 65 1007.8
20260904165505 33 161 1.6 3.2 0.00 0.00 0.00 63 1007.9
20260904165006 32 161 1.6 4.8 0.00 0.00 0.00 66 1007.8
20260904164506 32 161 1.6 4.8 0.00 0.00 0.00 64 1007.8
20260904164006 32 161 0.0 3.2 0.00 0.00 0.00 67 1007.7
20260904162505 31 161 1.6 4.8 0.00 0.00 0.00 66 1007.7
20260904162005 31 161 0.0 1.6 0.00 0.00 0.00 69 1007.8
20260904161505 31 161 1.6 3.2 0.00 0.00 0.00 68 1007.9
20260904161006 31 161 1.6 3.2 0.00 0.00 0.00 68 1007.9
20260904160005 31 161 0.0 3.2 0.00 0.00 0.00 71 1007.9
20260904155505 30 161 0.0 1.6 0.00 0.00 0.00 70 1007.9
20260904155005 30 161 0.0 3.2 0.00 0.00 0.00 70 1008.0
20260904154505 30 161 1.6 4.8 0.00 0.00 0.00 69 1008.1
20260904154005 30 161 0.0 1.6 0.00 0.00 0.00 75 1008.0
20260904153505 29 161 0.0 3.2 0.00 0.00 0.00 73 1008.1
20260904153005 29 161 1.6 3.2 0.00 0.00 0.00 74 1008.0
20260904152506 28 161 0.0 4.8 0.00 0.00 0.00 76 1008.0
20260904152005 28 161 0.0 1.6 0.00 0.00 0.00 77 1008.0
20260904151506 28 161 0.0 1.6 0.00 0.00 0.00 78 1007.9
20260904151006 28 161 0.0 1.6 0.00 0.00 0.00 76 1007.9
20260904150506 27 161 0.0 0.0 0.00 0.00 0.00 78 1007.9
20260904145005 26 161 0.0 3.2 0.00 0.00 0.00 82 1008.0
20260904144506 26 161 1.6 3.2 0.00 0.00 0.00 82 1008.0
20260904144005 26 161 0.0 4.8 0.00 0.00 0.00 82 1008.0
20260904143506 26 163 1.6 4.8 0.00 0.00 0.00 82 1007.9
20260904143006 26 163 0.0 1.6 0.00 0.00 0.00 83 1007.9
20260904142506 26 163 0.0 4.8 0.00 0.00 0.00 84 1007.8
20260904142006 25 163 1.6 3.2 0.00 0.00 0.00 84 1007.9
20260904141505 25 163 1.6 4.8 0.00 0.00 0.00 84 1007.9
20260904141005 25 163 1.6 3.2 0.00 0.00 0.00 85 1007.7
20260904140505 25 163 1.6 3.2 0.00 0.00 0.00 85 1007.6
20260904140005 25 163 1.6 3.2 0.00 0.00 0.00 86 1007.6
20260904135506 25 163 1.6 4.8 0.00 0.00 0.00 86 1007.7
20260904135005 25 163 1.6 3.2 0.00 0.00 0.00 87 1007.7
20260904134505 24 163 1.6 3.2 0.00 0.00 0.00 87 1007.7
20260904134006 24 163 1.6 4.8 0.00 0.00 0.00 87 1007.7
20260904133506 24 163 1.6 4.8 0.00 0.00 0.00 87 1007.7
20260904133006 24 163 1.6 8.0 0.00 0.00 0.00 88 1007.7
20260904132506 24 163 3.2 8.0 0.00 0.00 0.00 88 1007.7
20260904132006 23 163 3.2 8.0 0.00 0.00 0.00 88 1007.7
20260904131505 23 163 1.6 4.8 0.00 0.00 0.00 89 1007.7
20260904131005 23 163 3.2 8.0 0.00 0.00 0.00 90 1007.7
20260904130506 23 163 1.6 4.8 0.00 0.00 0.00 90 1007.6
20260904130006 23 163 4.8 9.7 0.00 0.00 0.00 91 1007.6
20260904125511 23 163 3.2 9.7 0.00 0.00 0.00 91 1007.6
20260904125006 22 163 1.6 4.8 0.00 0.00 0.00 91 1007.4
20260904124506 22 163 1.6 3.2 0.00 0.00 0.00 91 1007.3
20260904124006 22 163 1.6 3.2 0.00 0.00 0.00 91 1007.3
20260904123506 22 163 1.6 3.2 0.00 0.00 0.00 91 1007.3
20260904123005 22 163 1.6 3.2 0.00 0.00 0.00 91 1007.2
20260904122505 22 163 1.6 3.2 0.00 0.00 0.00 91 1007.2
20260904121505 22 163 1.6 4.8 0.00 0.00 0.00 91 1007.1
20260904121006 22 163 0.0 3.2 0.00 0.00 0.00 91 1007.1
20260904120505 22 163 1.6 3.2 0.00 0.00 0.00 91 1007.2
20260904120006 22 163 3.2 3.2 0.00 0.00 0.00 91 1007.2
20260904115505 22 163 1.6 4.8 0.00 0.03 0.00 91 1007.2
20260904115006 22 163 1.6 3.2 0.00 0.03 0.00 91 1007.2
20260904114505 22 163 1.6 4.8 0.00 0.05 0.00 90 1007.0
20260904113505 22 163 1.6 3.2 0.00 0.05 0.00 90 1007.0
20260904113006 22 163 1.6 4.8 0.00 0.08 0.00 90 1007.0
20260904112006 22 163 1.6 3.2 0.00 0.10 0.00 90 1007.0
20260904111505 22 163 1.6 3.2 0.00 0.13 0.00 90 1007.0
20260904111005 22 163 1.6 3.2 0.00 0.13 0.00 89 1007.0
20260904110505 23 163 0.0 3.2 0.00 0.13 0.00 89 1006.9
20260904110005 23 163 0.0 0.0 0.00 0.15 0.00 89 1006.9
20260904105505 23 163 0.0 0.0 0.00 0.15 0.00 89 1006.9
20260904105005 23 163 0.0 0.0 0.00 0.18 0.00 88 1006.9
20260904104505 23 163 0.0 0.0 0.00 0.18 0.00 88 1006.9
20260904104006 23 163 0.0 0.0 0.00 0.20 0.00 88 1006.9
20260904103506 23 163 0.0 0.0 0.00 0.20 0.00 88 1006.8
20260904102506 23 163 0.0 0.0 0.00 0.25 0.00 88 1007.0
20260904102006 23 163 0.0 0.0 0.00 0.25 0.00 88 1006.9
20260904101505 23 163 0.0 0.0 0.00 0.25 0.00 88 1006.9
20260904101005 23 163 0.0 0.0 0.00 0.25 0.00 88 1006.9
20260904100505 23 163 0.0 0.0 0.00 0.28 0.00 88 1006.9
20260904100005 23 163 0.0 3.2 0.00 0.28 0.00 88 1006.9
20260904095505 23 163 0.0 3.2 0.00 0.28 0.00 88 1006.8
20260904095006 23 163 1.6 3.2 0.00 0.28 0.00 88 1006.8
20260904094505 23 163 1.6 3.2 0.00 0.28 0.00 88 1006.7
20260904093505 23 163 1.6 4.8 0.00 0.28 0.00 88 1006.6
20260904093005 23 163 1.6 4.8 0.00 0.28 0.00 88 1006.7
20260904092505 23 163 1.6 3.2 0.00 0.28 0.00 89 1006.6
20260904092005 23 163 0.0 3.2 0.00 0.28 0.00 89 1006.7
20260904091506 23 163 1.6 3.2 0.00 0.28 0.00 89 1006.5
20260904091006 23 163 0.0 3.2 0.00 0.28 0.00 89 1006.5
20260904090506 23 163 1.6 4.8 0.00 0.28 0.00 89 1006.4
20260904090006 23 163 3.2 4.8 0.00 0.28 0.00 89 1006.4
20260904085006 23 163 1.6 4.8 0.00 0.28 0.00 89 1006.4
20260904084507 23 163 1.6 4.8 0.00 0.28 0.00 89 1006.3
20260904084006 23 163 3.2 8.0 0.00 0.28 0.00 89 1006.2
20260904083006 23 163 3.2 4.8 0.00 0.28 0.00 90 1006.0
20260904082506 23 163 3.2 8.0 0.00 0.28 0.00 90 1006.1
20260904082006 23 163 3.2 4.8 0.00 0.28 0.00 90 1006.1
20260904081506 23 163 3.2 4.8 0.00 0.28 0.00 90 1006.0
20260904081006 23 163 3.2 4.8 0.00 0.28 0.00 90 1006.0
20260904080006 23 163 3.2 8.0 0.00 0.28 0.00 90 1006.0
20260904075506 23 163 3.2 4.8 0.00 0.28 0.00 90 1006.1
20260904075006 23 163 3.2 4.8 0.00 0.28 0.00 90 1006.2
20260904074506 24 163 3.2 8.0 0.00 0.28 0.00 90 1006.2
20260904073506 24 163 3.2 8.0 0.00 0.28 0.00 90 1006.3
20260904073007 24 163 3.2 8.0 0.00 0.28 0.00 90 1006.4
20260904072506 24 163 3.2 4.8 0.00 0.28 0.00 90 1006.4
20260904070007 24 163 3.2 4.8 0.00 0.28 0.00 90 1006.5
20260904065506 24 163 1.6 4.8 0.00 0.28 0.00 90 1006.5
20260904065007 24 163 3.2 8.0 0.00 0.28 0.00 90 1006.5
20260904064507 24 163 3.2 8.0 0.00 0.28 0.00 90 1006.6
20260904064007 24 163 3.2 8.0 0.00 0.28 0.00 90 1006.6
20260904063506 24 164 1.6 4.8 0.00 0.28 0.00 90 1006.6
20260904063007 24 164 3.2 4.8 0.00 0.28 0.00 90 1006.7
20260904062506 24 164 1.6 4.8 0.00 0.28 0.00 90 1006.6
20260904061506 24 164 1.6 4.8 0.00 0.28 0.00 90 1006.7
20260904061006 24 164 3.2 4.8 0.00 0.28 0.00 90 1006.7
20260904060506 24 164 1.6 4.8 0.00 0.28 0.00 90 1006.7
20260904060006 24 164 1.6 4.8 0.00 0.28 0.00 90 1006.7
20260904055506 24 164 3.2 8.0 0.00 0.28 0.00 90 1006.7
20260904055006 24 164 1.6 4.8 0.00 0.28 0.00 90 1006.6
20260904054506 24 164 3.2 8.0 0.00 0.28 0.00 90 1006.7
20260904054007 24 164 3.2 8.0 0.00 0.28 0.00 90 1006.6
20260904053506 24 164 3.2 4.8 0.00 0.28 0.00 90 1006.6
20260904053006 24 164 3.2 4.8 0.00 0.28 0.00 90 1006.6
20260904052506 24 164 1.6 4.8 0.00 0.28 0.00 90 1006.7
20260904051506 24 164 1.6 4.8 0.00 0.28 0.00 90 1006.7
20260904051006 24 164 3.2 4.8 0.00 0.28 0.00 90 1006.7
20260904050506 24 164 1.6 4.8 0.00 0.28 0.00 89 1006.7
20260904050007 24 164 3.2 8.0 0.00 0.28 0.00 89 1006.7
20260904045506 24 163 1.6 3.2 0.00 0.28 0.28 89 1006.7
20260904045007 25 163 1.6 4.8 0.00 0.28 0.28 89 1006.7
20260904044506 25 163 1.6 4.8 0.00 0.28 0.28 89 1006.7
20260904044007 25 163 3.2 9.7 0.00 0.28 0.28 89 1006.7
20260904043507 25 169 3.2 8.0 0.00 0.28 0.28 89 1006.7
20260904043006 25 169 1.6 4.8 0.00 0.28 0.28 89 1006.7
20260904042506 25 169 1.6 4.8 0.00 0.28 0.28 89 1006.6
20260904042006 25 169 1.6 4.8 0.00 0.28 0.28 89 1006.6
20260904041006 25 169 3.2 4.8 0.00 0.28 0.28 89 1006.6
20260904040506 25 169 1.6 4.8 0.00 0.28 0.28 88 1006.7
20260904040006 25 169 1.6 8.0 0.00 0.28 0.28 88 1006.7
20260904035506 25 169 1.6 8.0 0.00 0.28 0.28 88 1006.8
20260904035006 25 169 1.6 3.2 0.00 0.28 0.28 88 1006.7
20260904034506 25 169 1.6 8.0 0.00 0.28 0.28 88 1006.7
20260904034006 25 169 1.6 4.8 0.00 0.28 0.28 88 1006.8
20260904033506 25 169 1.6 8.0 0.00 0.28 0.28 88 1006.8
20260904033006 25 170 1.6 4.8 0.00 0.28 0.28 87 1006.8
20260904032506 25 170 3.2 4.8 0.00 0.28 0.28 87 1006.8
20260904032006 25 169 1.6 8.0 0.00 0.28 0.28 87 1006.8
20260904031506 25 172 3.2 4.8 0.00 0.28 0.28 87 1006.8
20260904031006 25 172 1.6 4.8 0.00 0.28 0.28 87 1006.8
20260904030507 25 172 3.2 3.2 0.00 0.28 0.28 87 1006.8
20260904030006 25 172 3.2 8.0 0.00 0.28 0.28 87 1006.7
20260904025506 25 174 1.6 4.8 0.00 0.28 0.28 87 1006.6
20260904024506 25 157 1.6 3.2 0.00 0.28 0.28 86 1006.8
20260904024006 25 157 1.6 8.0 0.00 0.28 0.28 86 1006.8
20260904023506 25 157 1.6 8.0 0.00 0.28 0.28 86 1006.8
20260904022506 25 159 1.6 8.0 0.00 0.28 0.28 86 1006.7
20260904022006 25 159 3.2 8.0 0.00 0.28 0.28 86 1006.7
20260904021006 25 158 3.2 8.0 0.00 0.28 0.28 86 1006.7
20260904020506 25 158 3.2 8.0 0.00 0.28 0.28 86 1006.6
20260904020006 25 158 3.2 8.0 0.00 0.28 0.28 86 1006.4
20260904015506 25 161 3.2 8.0 0.00 0.28 0.28 86 1006.2
20260904015006 25 169 4.8 9.7 0.00 0.28 0.28 86 1006.4
20260904014506 25 156 3.2 4.8 0.00 0.28 0.28 86 1006.4
20260904014006 25 156 4.8 12.9 0.00 0.28 0.28 86 1006.3
20260904013506 25 169 3.2 9.7 0.00 0.28 0.28 85 1006.2
20260904013006 26 167 4.8 8.0 0.00 0.28 0.28 85 1006.4
20260904012506 26 155 1.6 9.7 0.00 0.28 0.28 85 1006.4
20260904012006 26 161 3.2 11.3 0.00 0.28 0.28 85 1006.4
20260904011506 26 160 3.2 8.0 0.00 0.28 0.28 85 1006.5
20260904011007 26 160 3.2 8.0 0.00 0.28 0.28 84 1006.5
20260904010506 26 160 3.2 8.0 0.00 0.28 0.28 84 1006.6
20260904004507 26 156 1.6 12.9 0.00 0.28 0.28 83 1006.4
20260904004007 26 153 3.2 12.9 0.00 0.28 0.28 82 1006.3
20260904003506 26 175 1.6 4.8 0.00 0.28 0.28 82 1006.3
20260904003006 26 177 3.2 4.8 0.00 0.28 0.28 82 1006.3
20260904002506 26 165 4.8 11.3 0.00 0.28 0.28 81 1006.3
20260904001507 26 234 4.8 9.7 0.00 0.28 0.28 81 1006.3
20260904001007 26 148 3.2 9.7 0.00 0.28 0.28 80 1006.2
20260904000506 27 169 3.2 8.0 0.00 0.28 0.28 80 1006.0
20260903235506 27 168 3.2 9.7 0.00 0.28 0.28 80 1006.1
20260903235006 27 163 3.2 9.7 0.00 0.28 0.28 79 1006.0
20260903233506 27 163 3.2 9.7 0.00 0.28 0.28 78 1006.0
20260903233006 27 163 4.8 9.7 0.00 0.28 0.28 77 1006.1
20260903232506 27 159 1.6 8.0 0.00 0.28 0.28 77 1006.1
20260903232006 27 155 3.2 4.8 0.00 0.28 0.28 77 1006.2
20260903231506 27 155 1.6 9.7 0.00 0.28 0.28 77 1006.1
20260903231006 27 162 1.6 8.0 0.00 0.28 0.28 77 1006.2
20260903230506 27 160 1.6 8.0 0.00 0.28 0.28 77 1006.2
20260903230006 27 161 3.2 8.0 0.00 0.28 0.28 76 1006.2
20260903225506 27 166 4.8 8.0 0.00 0.28 0.28 76 1006.2
20260903225006 27 168 3.2 12.9 0.00 0.28 0.28 75 1006.0
20260903224506 27 174 4.8 14.5 0.00 0.28 0.28 75 1006.1
20260903224006 27 170 3.2 12.9 0.00 0.28 0.28 75 1006.1
20260903223506 27 180 3.2 12.9 0.00 0.28 0.28 74 1006.2
20260903223007 27 162 4.8 9.7 0.00 0.28 0.28 74 1006.1
20260903222506 27 173 3.2 8.0 0.00 0.28 0.28 75 1006.1
20260903222006 27 174 3.2 11.3 0.00 0.28 0.28 75 1006.1
20260903221506 27 163 4.8 11.3 0.00 0.28 0.28 74 1006.1
20260903220506 27 163 4.8 11.3 0.00 0.28 0.28 73 1005.9
20260903220006 27 175 3.2 11.3 0.00 0.28 0.28 73 1006.0
20260903215506 27 175 4.8 9.7 0.00 0.28 0.28 72 1006.0
20260903215006 28 150 3.2 20.9 0.00 0.28 0.28 73 1006.1
20260903214007 27 182 3.2 8.0 0.00 0.28 0.28 72 1006.2
20260903213507 28 202 4.8 8.0 0.00 0.28 0.28 72 1006.3
20260903213007 28 168 3.2 9.7 0.00 0.28 0.28 71 1006.4
20260903212506 28 150 4.8 12.9 0.00 0.28 0.28 71 1006.4
20260903212007 28 169 3.2 9.7 0.00 0.28 0.28 71 1006.5
20260903211506 28 146 3.2 16.1 0.00 0.28 0.28 72 1006.5
20260903210506 27 172 4.8 19.3 0.00 0.28 0.28 70 1006.2
20260903210006 28 166 6.4 14.5 0.00 0.28 0.28 69 1006.2
20260903205506 28 196 6.4 16.1 0.00 0.28 0.28 68 1006.1
20260903205006 28 187 6.4 16.1 0.00 0.28 0.28 68 1006.1
20260903204506 28 175 6.4 19.3 0.00 0.28 0.28 68 1006.4
20260903204006 28 166 6.4 14.5 0.00 0.28 0.28 68 1006.1
20260903203506 28 180 6.4 19.3 0.00 0.28 0.28 68 1006.1
20260903203006 28 186 6.4 16.1 0.00 0.28 0.28 68 1006.3
20260903202506 28 179 8.0 19.3 0.00 0.28 0.28 67 1006.5
20260903202006 28 185 4.8 14.5 0.00 0.28 0.28 69 1006.8
20260903201506 28 172 4.8 11.3 0.00 0.28 0.28 69 1006.8
20260903201006 28 171 3.2 9.7 0.00 0.28 0.28 70 1006.7
20260903200506 27 156 3.2 11.3 0.00 0.28 0.28 70 1006.7
20260903200006 27 157 6.4 11.3 0.00 0.28 0.28 69 1006.7
20260903195009 27 156 4.8 12.9 0.00 0.28 0.28 67 1006.7
20260903194506 27 179 4.8 19.3 0.00 0.28 0.28 66 1006.8
20260903194006 27 180 4.8 19.3 0.00 0.28 0.28 66 1006.8
20260903193506 27 170 3.2 14.5 0.00 0.28 0.28 66 1006.8
20260903193007 27 172 3.2 12.9 0.00 0.28 0.28 67 1006.9
20260903192506 27 162 3.2 8.0 0.00 0.28 0.28 65 1007.0
20260903192006 28 170 6.4 14.5 0.00 0.28 0.28 65 1007.1
20260903191506 28 163 4.8 9.7 0.00 0.28 0.28 64 1007.2
20260903191006 28 180 6.4 14.5 0.00 0.28 0.28 63 1007.3
20260903190506 28 160 4.8 12.9 0.00 0.28 0.28 65 1007.4
20260903190006 28 196 3.2 9.7 0.00 0.28 0.28 67 1007.3
20260903185006 28 176 3.2 9.7 0.00 0.28 0.28 65 1007.5
20260903184006 27 155 1.6 8.0 0.00 0.28 0.28 67 1007.4
20260903183506 27 163 4.8 16.1 0.00 0.28 0.28 68 1007.3
20260903183006 27 165 4.8 16.1 0.00 0.28 0.28 66 1007.4
20260903182506 27 164 3.2 9.7 0.00 0.28 0.28 65 1007.5